YUM weather

Yuma MCAS/Yuma International Airport
Yuma, Arizona, United States

Public forecast

Using degrees Fahrenheit for public forecast. Weather courtesy of forecast.io.

Current aviation weather report (METAR) for Yuma MCAS/Yuma International Airport

Retrieved 2020/02/18 05:57 UTC (15 minutes ago):

KNYL 180557Z AUTO 26003KT 10SM CLR 16/03 A2990 RMK AO2 SLP122 T01610033 10256 20161 51013

Aviation forecast (TAF) for Yuma MCAS/Yuma International Airport

Forecast is more than 12 hours old.

Retrieved 2014/04/27 15:15 UTC (6 years ago):

TAF TAF COR KNYL 271500Z 2715/2815 VRB06KT 9999 FEW250 QNH2989INS BECMG 2716/2718 26007KT QNH2978INS BECMG 2806/2808 VRB05KT QNH2981INS AUTOMATED SENSOR METWATCH 2715 TIL 2815 TX22/2723Z TN10/2813Z COR 1545